Showing default

SYMPHONIE 1, 7578

Orbit data source: Space-Track

SYMPHONIE 1, 7578 is an FR and DE payload satellite in GEO that was launched on Thu, 19 Dec 1974 UTC via a DELTA 2914 launch vehicle from the Air Force Eastern Test Range (AFETR). Payload-class satellites include a variety of spacecraft equipped with specific instruments for various scientific and technological missions. These include communications satellites like Starlink; space stations such as the ISS; scientific satellites like the Hubble; Earth observation satellites from companies like Planet Labs, Umbra, and HawkEye 360; GPS; miniature CubeSats for education and research; and military/defense satellites.

Not visible in the next 10 days
Identifier
7578, 1974-101A
Orbit
GEO
Country
Flag of UnknownUnknown / FGER
Related business
Manufacturer
AELM/CIFAS
Mission
Spacecraft
Bus & Motor
SYMPHONIE, S400
Mass
400 kg wet, 240 kg dry
Launch date (UTC)
1974-12-19 (51 years ago)
Launch vehicle
DELTA 2914
Launch site
Air Force Eastern Test Range (AFETR)
Object type
Payload
Rocket body
Debris
Shape & HBR
Unknown
Radar Cross Section
Large (>1 m²)

Expand to show TLE details & history
Last TLE update: 6 hours ago

TLE from 6 hours ago
0 SYMPHONIE 1
1  7578U 74101A   26036.14283593 -.00000013  00000-0  00000+0 0  9996
2  7578   4.9134 278.6626 0005075  15.0349 327.2632  0.99940060115870
Epoch: 2026-02-05T03:25Z
TLE epoch observation values (Epoch: 2026-02-05T03:25:41.024Z)
Latitude
-1.49177°
Longitude
74.31077°
Altitude
35,861.489 km
Speed
3.073 km/s
True Right ascension
17h 24m 07s
True Declination
-1° 29' 25"
Sunlit
Object was in daylight at epoch
Visualization orbit readout
Latitude
Unknown
Longitude
Unknown
Altitude
Unknown
Speed
Unknown
Apparent Right ascension
Unknown
Apparent Declination
Unknown
Sunlit
N/A
Visualization observer readout
Local Sidereal Time
11:34:51
Azimuth
Unknown
Elevation
Unknown
Doppler factor
Unknown
Orbital elements
Apogee altitude
35,902.35 km
Perigee altitude
35,859.457 km
Semi-major axis
42,259.04 km
Eccentricity
0.00051
Inclination
4.9134°
RAAN
278.6626°
Arg. of periapsis
15.0349°
True anomaly
327.23173°
Mean anomaly
327.2632°
Eccentric anomaly
327.24747°
Mean motion
0.24984 °/min
Orbital period
1,440.92 mins
BSTAR
0
Loading maneuver chart data...
Computing Atmospheric mass density...
Loading historical data...
Loading historical data...
Loading historical data...
Loading historical data...
Loading historical data...
Loading historical data...
Loading historical data...

Documentation

Showing up to 5 results
|